Torna al catalogo

ADEOS 2

AttivoScienzaSSO
NORAD 27597·PAYLOAD·🇯🇵 Japan

Lanciato Dec 14, 2002 da Tanegashima Space Center

Loading…

Prossimi Passaggi (prossime 24 ore)

TLE

AggiornatoSource: Space-Track

Epoca: Sep 14, 2026, 14:22 UTC

1 27597U 02056A   26257.59881740  .00000167  00000-0  83407-4 0  9997
2 27597  98.7983 217.6608 0001603 122.2315 237.9022 14.29388388237283

Traccia ADEOS 2 in tempo reale con AllMySat

Download on the App Store